Ketchikan, AK

5:17 PM AKST on December 12, 2018 (GMT -0900)
Ketchikan International

Weather History for PAKT - October, 2018

Change the Weather History Date:

Friday, October 26, 2018

  Actual Average Record
Temperature  
Mean Temperature 46 °F -  
Max Temperature 51 °F 48 °F 60 °F (1952)
Min Temperature 42 °F 37 °F 23 °F (1991)
Degree Days  
Heating Degree Days 18    
Moisture  
Dew Point 41 °F    
Average Humidity 84    
Maximum Humidity 93    
Minimum Humidity 61    
Precipitation  
Precipitation 0.05 in - - ()
Sea Level Pressure  
Sea Level Pressure 29.64 in    
Wind  
Wind Speed 3 mph (South)    
Max Wind Speed 8 mph    
Max Gust Speed -    
Visibility 9 miles    
Events Rain    
Averages and records for this station are not official NWS values.
T = Trace of Precipitation, MM = Missing Value Source: NWS Daily Summary

Daily Weather History Graph

Daily Weather History Graph

Search for Another Location

Airport or City:

Astronomy

Oct. 26, 2018 Rise Set
Actual Time 7:39 AM AKDT 5:20 PM AKDT
Civil Twilight 7:01 AM AKDT 5:58 PM AKDT
Nautical Twilight 6:18 AM AKDT 6:41 PM AKDT
Astronomical Twilight 5:36 AM AKDT 7:23 PM AKDT
Moon 6:54 PM AKDT (10/26) 9:51 AM AKDT (10/26)
Length of Visible Light 10h 57m
Length of Day
9h 41m
Waning Gibbous, 95% of the Moon is Illuminated
Oct 26
Waning Gibbous
Oct 31
Last Quarter
Nov 7
New
Nov 15
First Quarter
Nov 22
Full

Hourly Weather History & Observations

Time (AKDT) Temp. Windchill Dew Point Humidity Pressure Visibility Wind Dir Wind Speed Gust Speed Precip Events Conditions
12:53 AM 51.1 °F - 37.9 °F 61% 29.60 in 10.0 mi South 3.5 mph - N/A   Mostly Cloudy
1:53 AM 46.4 °F - 39.2 °F 76% 29.55 in 10.0 mi Calm Calm - N/A   Clear
2:53 AM 46.0 °F 44.8 °F 39.0 °F 76% 29.51 in 10.0 mi West 3.5 mph - N/A   Clear
3:53 AM 45.0 °F - 37.9 °F 76% 29.46 in 10.0 mi Calm Calm - N/A   Clear
4:53 AM 44.1 °F - 37.9 °F 79% 29.42 in 10.0 mi Calm Calm - N/A   Scattered Clouds
5:53 AM 46.9 °F - 37.9 °F 71% 29.39 in 10.0 mi Calm Calm - N/A   Overcast
6:17 AM 46.9 °F - 37.9 °F 71% 29.39 in 10.0 mi Calm Calm - N/A   Overcast
6:53 AM 48.2 °F - 37.4 °F 66% 29.40 in 10.0 mi South 4.6 mph - N/A Rain Light Rain
7:53 AM 46.4 °F 44.3 °F 41.0 °F 81% 29.41 in 6.0 mi SSW 4.6 mph - N/A Rain Light Rain
8:53 AM 46.4 °F - 42.8 °F 87% 29.43 in 5.0 mi Calm Calm - N/A Rain Light Rain
9:53 AM 44.6 °F 42.2 °F 42.8 °F 93% 29.45 in 6.0 mi WNW 4.6 mph - N/A Rain Light Rain
10:53 AM 44.6 °F 43.1 °F 42.8 °F 93% 29.49 in 10.0 mi WNW 3.5 mph - N/A Rain Light Rain
11:53 AM 46.4 °F - 42.8 °F 87% 29.54 in 10.0 mi Calm Calm - N/A Rain Light Rain
12:53 PM 44.6 °F 41.4 °F 42.8 °F 93% 29.60 in 6.0 mi SE 5.8 mph - N/A Rain Light Rain
1:53 PM 46.0 °F 43.9 °F 41.0 °F 83% 29.64 in 9.0 mi ENE 4.6 mph - 0.03 in Rain Light Rain
2:53 PM 46.0 °F 43.9 °F 41.0 °F 83% 29.70 in 10.0 mi SSE 4.6 mph - 0.01 in   Overcast
3:53 PM 46.4 °F 42.4 °F 42.8 °F 87% 29.73 in 10.0 mi SE 8.1 mph - N/A   Overcast
4:53 PM 44.6 °F 40.7 °F 41.0 °F 87% 29.76 in 10.0 mi SSE 6.9 mph - N/A   Mostly Cloudy
5:53 PM 44.1 °F 41.5 °F 41.0 °F 89% 29.80 in 10.0 mi South 4.6 mph - N/A   Mostly Cloudy
6:53 PM 45.0 °F 42.6 °F 42.1 °F 90% 29.83 in 10.0 mi South 4.6 mph - N/A   Mostly Cloudy
7:53 PM 44.6 °F 42.2 °F 42.8 °F 93% 29.85 in 10.0 mi South 4.6 mph - N/A   Mostly Cloudy
8:53 PM 42.8 °F 40.1 °F 41.0 °F 93% 29.88 in 10.0 mi South 4.6 mph - N/A   Partly Cloudy
9:53 PM 44.1 °F 41.5 °F 42.1 °F 93% 29.91 in 10.0 mi SSE 4.6 mph - N/A   Mostly Cloudy
10:53 PM 44.1 °F 41.5 °F 42.1 °F 93% 29.93 in 10.0 mi SE 4.6 mph - 0.01 in   Overcast
11:34 PM 45.0 °F 41.8 °F 43.0 °F 93% 29.94 in 10.0 mi South 5.8 mph - N/A   Mostly Cloudy
11:53 PM 44.1 °F 42.5 °F 42.1 °F 93% 29.94 in 10.0 mi SE 3.5 mph - N/A   Overcast